| time (UTC) | temp F | wind direction | speed knots | gust knots | rain 1hr in | rain 24hr in | rain mn in | humidity % | barometer mb |
| 20260506202503 | 63 | 318 | 7.8 | 13.0 | 0.00 | 0.00 | 0.00 | 62 | 1020.2 |
| 20260506201502 | 63 | 319 | 7.0 | 12.2 | 0.00 | 0.00 | 0.00 | 62 | 1020.3 |
| 20260506201002 | 62 | 325 | 7.0 | 11.3 | 0.00 | 0.00 | 0.00 | 62 | 1020.4 |
| 20260506200503 | 62 | 316 | 6.1 | 12.2 | 0.00 | 0.00 | 0.00 | 62 | 1020.5 |
| 20260506200003 | 62 | 324 | 6.1 | 11.3 | 0.00 | 0.00 | 0.00 | 63 | 1020.2 |
| 20260506195502 | 62 | 319 | 7.0 | 10.4 | 0.00 | 0.00 | 0.00 | 63 | 1020.3 |
| 20260506195002 | 61 | 315 | 6.1 | 9.6 | 0.00 | 0.00 | 0.00 | 63 | 1020.3 |
| 20260506194504 | 61 | 317 | 7.0 | 10.4 | 0.00 | 0.00 | 0.00 | 64 | 1020.4 |
| 20260506194002 | 61 | 322 | 8.7 | 10.4 | 0.00 | 0.00 | 0.00 | 65 | 1020.5 |
| 20260506192503 | 60 | 310 | 8.7 | 10.4 | 0.00 | 0.00 | 0.00 | 66 | 1020.6 |
| 20260506192002 | 60 | 321 | 7.8 | 13.0 | 0.00 | 0.00 | 0.00 | 66 | 1020.7 |
| 20260506191503 | 60 | 324 | 7.0 | 13.9 | 0.00 | 0.00 | 0.00 | 66 | 1020.8 |
| 20260506191002 | 60 | 320 | 6.1 | 12.2 | 0.00 | 0.00 | 0.00 | 66 | 1020.8 |
| 20260506190502 | 60 | 328 | 6.1 | 11.3 | 0.00 | 0.00 | 0.00 | 66 | 1020.9 |
| 20260506185002 | 59 | 327 | 7.0 | 9.6 | 0.00 | 0.00 | 0.00 | 67 | 1020.7 |
| 20260506184502 | 58 | 312 | 6.1 | 10.4 | 0.00 | 0.00 | 0.00 | 68 | 1020.8 |
| 20260506183003 | 58 | 319 | 7.0 | 11.3 | 0.00 | 0.00 | 0.00 | 68 | 1020.7 |
| 20260506182502 | 58 | 321 | 7.8 | 12.2 | 0.00 | 0.00 | 0.00 | 68 | 1020.8 |
| 20260506181502 | 57 | 321 | 7.0 | 11.3 | 0.00 | 0.00 | 0.00 | 68 | 1020.9 |
| 20260506181003 | 57 | 317 | 7.0 | 11.3 | 0.00 | 0.00 | 0.00 | 68 | 1020.9 |
| 20260506180502 | 57 | 320 | 7.0 | 13.0 | 0.00 | 0.00 | 0.00 | 68 | 1021.1 |
| 20260506180002 | 56 | 323 | 7.0 | 13.0 | 0.00 | 0.00 | 0.00 | 69 | 1021.0 |
| 20260506175502 | 56 | 318 | 7.0 | 10.4 | 0.00 | 0.00 | 0.00 | 69 | 1021.0 |
| 20260506174502 | 56 | 324 | 7.0 | 10.4 | 0.00 | 0.00 | 0.00 | 69 | 1021.1 |
| 20260506173502 | 56 | 322 | 7.8 | 9.6 | 0.00 | 0.00 | 0.00 | 69 | 1021.1 |
| 20260506173003 | 55 | 322 | 8.7 | 13.9 | 0.00 | 0.00 | 0.00 | 69 | 1021.1 |
| 20260506172503 | 55 | 319 | 7.8 | 10.4 | 0.00 | 0.00 | 0.00 | 69 | 1021.1 |
| 20260506172002 | 55 | 320 | 6.1 | 13.0 | 0.00 | 0.00 | 0.00 | 70 | 1021.2 |
| 20260506171503 | 54 | 320 | 6.1 | 10.4 | 0.00 | 0.00 | 0.00 | 71 | 1021.0 |
| 20260506171002 | 54 | 332 | 7.0 | 9.6 | 0.00 | 0.00 | 0.00 | 71 | 1021.0 |
| 20260506170502 | 54 | 317 | 6.1 | 11.3 | 0.00 | 0.00 | 0.00 | 71 | 1020.9 |
| 20260506170003 | 54 | 320 | 5.2 | 11.3 | 0.00 | 0.00 | 0.00 | 71 | 1020.9 |
| 20260506165502 | 53 | 327 | 5.2 | 9.6 | 0.00 | 0.00 | 0.00 | 72 | 1021.1 |
| 20260506165003 | 53 | 321 | 6.1 | 8.7 | 0.00 | 0.00 | 0.00 | 72 | 1021.0 |
| 20260506164503 | 53 | 321 | 7.0 | 9.6 | 0.00 | 0.00 | 0.00 | 73 | 1021.1 |
| 20260506164002 | 53 | 316 | 6.1 | 11.3 | 0.00 | 0.00 | 0.00 | 72 | 1021.0 |
| 20260506163502 | 52 | 322 | 7.0 | 13.0 | 0.00 | 0.01 | 0.00 | 72 | 1021.1 |
| 20260506163003 | 52 | 319 | 7.0 | 9.6 | 0.00 | 0.01 | 0.00 | 73 | 1021.1 |
| 20260506162503 | 52 | 317 | 6.1 | 11.3 | 0.00 | 0.01 | 0.00 | 73 | 1021.1 |
| 20260506162003 | 52 | 314 | 6.1 | 13.0 | 0.00 | 0.01 | 0.00 | 74 | 1021.1 |
| 20260506161502 | 52 | 320 | 5.2 | 9.6 | 0.00 | 0.01 | 0.00 | 74 | 1021.0 |
| 20260506161002 | 52 | 324 | 5.2 | 10.4 | 0.00 | 0.01 | 0.00 | 73 | 1021.1 |
| 20260506160002 | 51 | 324 | 5.2 | 10.4 | 0.00 | 0.01 | 0.00 | 75 | 1021.1 |
| 20260506155503 | 51 | 320 | 5.2 | 7.8 | 0.00 | 0.01 | 0.00 | 76 | 1021.1 |
| 20260506155002 | 51 | 317 | 5.2 | 12.2 | 0.00 | 0.01 | 0.00 | 76 | 1021.1 |
| 20260506154503 | 51 | 321 | 4.3 | 9.6 | 0.00 | 0.01 | 0.00 | 76 | 1021.1 |
| 20260506154003 | 51 | 319 | 3.5 | 8.7 | 0.00 | 0.01 | 0.00 | 76 | 1021.1 |
| 20260506153502 | 51 | 319 | 3.5 | 9.6 | 0.00 | 0.01 | 0.00 | 77 | 1021.1 |
| 20260506153003 | 50 | 317 | 2.6 | 9.6 | 0.00 | 0.01 | 0.00 | 78 | 1021.2 |
| 20260506152503 | 50 | 325 | 2.6 | 7.8 | 0.00 | 0.01 | 0.00 | 79 | 1021.3 |
| 20260506152003 | 50 | 318 | 2.6 | 4.3 | 0.00 | 0.01 | 0.00 | 81 | 1021.2 |
| 20260506151502 | 49 | 328 | 1.7 | 7.0 | 0.00 | 0.01 | 0.00 | 83 | 1021.2 |
| 20260506151003 | 48 | 18 | 0.9 | 3.5 | 0.00 | 0.01 | 0.00 | 85 | 1021.2 |
| 20260506150503 | 48 | 330 | 0.9 | 3.5 | 0.00 | 0.01 | 0.00 | 85 | 1021.2 |
| 20260506150002 | 48 | 333 | 0.9 | 1.7 | 0.00 | 0.01 | 0.00 | 86 | 1020.9 |
| 20260506145503 | 47 | 328 | 1.7 | 3.5 | 0.00 | 0.01 | 0.00 | 87 | 1020.9 |
| 20260506144502 | 47 | 327 | 1.7 | 4.3 | 0.00 | 0.01 | 0.00 | 88 | 1021.0 |
| 20260506144002 | 46 | 327 | 1.7 | 3.5 | 0.00 | 0.01 | 0.00 | 89 | 1021.0 |
| 20260506143502 | 46 | 321 | 0.9 | 2.6 | 0.00 | 0.01 | 0.00 | 90 | 1020.8 |
| 20260506142503 | 46 | 322 | 0.9 | 1.7 | 0.00 | 0.01 | 0.00 | 90 | 1020.7 |
| 20260506142003 | 45 | 321 | 0.9 | 0.9 | 0.00 | 0.01 | 0.00 | 89 | 1020.7 |
| 20260506141502 | 45 | 322 | 0.9 | 1.7 | 0.00 | 0.01 | 0.00 | 89 | 1020.7 |
| 20260506141003 | 45 | 318 | 0.9 | 1.7 | 0.00 | 0.01 | 0.00 | 89 | 1020.6 |
| 20260506140502 | 44 | 315 | 0.9 | 1.7 | 0.00 | 0.01 | 0.00 | 89 | 1020.6 |
| 20260506140002 | 44 | 315 | 0.9 | 1.7 | 0.00 | 0.01 | 0.00 | 88 | 1020.6 |
| 20260506135503 | 44 | 315 | 0.9 | 1.7 | 0.00 | 0.01 | 0.00 | 88 | 1020.6 |
| 20260506135002 | 44 | 314 | 0.0 | 1.7 | 0.00 | 0.01 | 0.00 | 87 | 1020.6 |
| 20260506134503 | 44 | 0 | 0.0 | 0.0 | 0.00 | 0.01 | 0.00 | 87 | 1020.5 |
| 20260506134003 | 44 | 318 | 0.0 | 0.9 | 0.00 | 0.01 | 0.00 | 86 | 1020.4 |
| 20260506133502 | 44 | 0 | 0.0 | 0.0 | 0.00 | 0.01 | 0.00 | 87 | 1020.5 |
| 20260506133003 | 45 | 0 | 0.9 | 0.0 | 0.00 | 0.01 | 0.00 | 86 | 1020.5 |
| 20260506132002 | 45 | 0 | 0.9 | 0.0 | 0.00 | 0.02 | 0.00 | 87 | 1020.4 |
| 20260506131503 | 45 | 324 | 0.9 | 1.7 | 0.00 | 0.02 | 0.00 | 86 | 1020.4 |
| 20260506131002 | 45 | 324 | 0.0 | 1.7 | 0.00 | 0.02 | 0.00 | 86 | 1020.4 |
| 20260506130003 | 46 | 326 | 0.9 | 1.7 | 0.00 | 0.02 | 0.00 | 85 | 1020.3 |
| 20260506125502 | 46 | 325 | 0.0 | 0.9 | 0.00 | 0.02 | 0.00 | 85 | 1020.1 |
| 20260506125003 | 46 | 0 | 0.0 | 0.0 | 0.00 | 0.02 | 0.00 | 85 | 1020.0 |
| 20260506124502 | 46 | 0 | 0.0 | 0.0 | 0.00 | 0.02 | 0.00 | 85 | 1020.0 |
| 20260506124002 | 46 | 0 | 0.0 | 0.0 | 0.00 | 0.02 | 0.00 | 85 | 1020.0 |
| 20260506123003 | 46 | 324 | 0.9 | 2.6 | 0.00 | 0.02 | 0.00 | 85 | 1019.9 |
| 20260506122503 | 47 | 324 | 0.9 | 1.7 | 0.00 | 0.02 | 0.00 | 85 | 1019.9 |
| 20260506122002 | 47 | 323 | 0.9 | 1.7 | 0.00 | 0.02 | 0.00 | 84 | 1019.9 |
| 20260506121502 | 47 | 323 | 0.0 | 2.6 | 0.00 | 0.02 | 0.00 | 83 | 1019.9 |
| 20260506121003 | 47 | 289 | 0.0 | 1.7 | 0.00 | 0.02 | 0.00 | 82 | 1019.9 |
| 20260506120002 | 47 | 284 | 0.0 | 1.7 | 0.00 | 0.02 | 0.00 | 83 | 1019.9 |
| 20260506115503 | 47 | 0 | 0.0 | 0.0 | 0.00 | 0.02 | 0.00 | 83 | 1019.9 |
| 20260506115002 | 47 | 313 | 0.0 | 2.6 | 0.00 | 0.02 | 0.00 | 83 | 1020.0 |
| 20260506114502 | 47 | 315 | 0.9 | 1.7 | 0.00 | 0.02 | 0.00 | 83 | 1019.9 |
| 20260506114002 | 47 | 314 | 1.7 | 1.7 | 0.00 | 0.02 | 0.00 | 84 | 1019.8 |
| 20260506113503 | 47 | 322 | 1.7 | 4.3 | 0.00 | 0.02 | 0.00 | 83 | 1019.9 |
| 20260506113003 | 48 | 321 | 1.7 | 3.5 | 0.00 | 0.02 | 0.00 | 82 | 1019.8 |
| 20260506112003 | 47 | 270 | 2.6 | 1.7 | 0.00 | 0.02 | 0.00 | 79 | 1019.7 |
| 20260506111503 | 47 | 265 | 2.6 | 5.2 | 0.00 | 0.02 | 0.00 | 79 | 1019.6 |
| 20260506111002 | 47 | 258 | 1.7 | 7.8 | 0.00 | 0.02 | 0.00 | 81 | 1019.6 |
| 20260506110504 | 48 | 316 | 1.7 | 2.6 | 0.00 | 0.02 | 0.00 | 82 | 1019.6 |
| 20260506110003 | 48 | 320 | 0.9 | 4.3 | 0.00 | 0.02 | 0.00 | 81 | 1019.6 |
| 20260506105503 | 48 | 313 | 0.9 | 1.7 | 0.00 | 0.02 | 0.00 | 79 | 1019.5 |
| 20260506105002 | 48 | 263 | 0.9 | 1.7 | 0.00 | 0.02 | 0.00 | 79 | 1019.5 |
| 20260506104504 | 48 | 261 | 2.6 | 1.7 | 0.00 | 0.02 | 0.00 | 78 | 1019.6 |
| 20260506104003 | 48 | 273 | 2.6 | 7.0 | 0.00 | 0.02 | 0.00 | 78 | 1019.6 |
| 20260506103502 | 48 | 255 | 1.7 | 3.5 | 0.00 | 0.02 | 0.00 | 78 | 1019.5 |
| 20260506103003 | 48 | 271 | 2.6 | 2.6 | 0.00 | 0.02 | 0.00 | 79 | 1019.5 |
| 20260506102503 | 47 | 283 | 1.7 | 5.2 | 0.00 | 0.02 | 0.00 | 79 | 1019.5 |
| 20260506102002 | 47 | 277 | 2.6 | 5.2 | 0.00 | 0.02 | 0.00 | 79 | 1019.5 |
| 20260506101503 | 47 | 263 | 2.6 | 3.5 | 0.00 | 0.02 | 0.00 | 79 | 1019.5 |
| 20260506101004 | 47 | 253 | 1.7 | 7.0 | 0.00 | 0.02 | 0.00 | 80 | 1019.4 |
| 20260506100502 | 47 | 271 | 1.7 | 1.7 | 0.00 | 0.02 | 0.00 | 80 | 1019.5 |
| 20260506095502 | 47 | 268 | 2.6 | 3.5 | 0.00 | 0.02 | 0.00 | 81 | 1019.4 |
| 20260506095003 | 47 | 268 | 2.6 | 6.1 | 0.00 | 0.02 | 0.00 | 82 | 1019.2 |
| 20260506094503 | 46 | 270 | 1.7 | 10.4 | 0.00 | 0.02 | 0.00 | 83 | 1019.2 |
| 20260506094002 | 46 | 274 | 0.0 | 1.7 | 0.00 | 0.02 | 0.00 | 84 | 1019.3 |
| 20260506093502 | 46 | 274 | 0.0 | 2.6 | 0.00 | 0.02 | 0.00 | 85 | 1019.3 |
| 20260506093004 | 46 | 0 | 0.9 | 0.0 | 0.00 | 0.02 | 0.00 | 85 | 1019.3 |
| 20260506092503 | 46 | 0 | 0.9 | 0.0 | 0.00 | 0.02 | 0.00 | 85 | 1019.3 |
| 20260506092002 | 46 | 274 | 0.9 | 3.5 | 0.00 | 0.02 | 0.00 | 85 | 1019.3 |
| 20260506091003 | 46 | 274 | 0.9 | 5.2 | 0.00 | 0.02 | 0.00 | 85 | 1019.5 |
| 20260506090503 | 45 | 273 | 0.0 | 2.6 | 0.00 | 0.02 | 0.00 | 85 | 1019.4 |
| 20260506085503 | 45 | 272 | 0.0 | 5.2 | 0.00 | 0.02 | 0.00 | 84 | 1019.3 |
| 20260506085003 | 45 | 0 | 0.9 | 0.0 | 0.00 | 0.02 | 0.00 | 84 | 1019.4 |
| 20260506084503 | 45 | 270 | 0.9 | 5.2 | 0.00 | 0.02 | 0.00 | 84 | 1019.4 |
| 20260506084003 | 45 | 270 | 0.9 | 5.2 | 0.00 | 0.02 | 0.00 | 84 | 1019.4 |
| 20260506083503 | 45 | 0 | 0.9 | 0.0 | 0.00 | 0.02 | 0.00 | 83 | 1019.3 |
| 20260506083003 | 45 | 272 | 0.9 | 5.2 | 0.00 | 0.02 | 0.00 | 83 | 1019.2 |
| 20260506082503 | 45 | 273 | 0.9 | 6.1 | 0.00 | 0.02 | 0.00 | 83 | 1019.2 |
| 20260506082004 | 45 | 273 | 0.9 | 5.2 | 0.00 | 0.02 | 0.00 | 83 | 1019.2 |
| 20260506081503 | 45 | 272 | 0.9 | 6.1 | 0.00 | 0.02 | 0.00 | 83 | 1019.1 |
| 20260506081002 | 45 | 257 | 0.9 | 3.5 | 0.00 | 0.02 | 0.00 | 83 | 1019.3 |
| 20260506080503 | 46 | 256 | 0.9 | 3.5 | 0.00 | 0.02 | 0.00 | 83 | 1019.2 |
| 20260506073503 | 46 | 239 | 3.5 | 7.0 | 0.00 | 0.02 | 0.00 | 84 | 1019.1 |
| 20260506073003 | 46 | 237 | 3.5 | 6.1 | 0.00 | 0.02 | 0.00 | 84 | 1019.1 |
| 20260506072503 | 46 | 236 | 2.6 | 5.2 | 0.00 | 0.02 | 0.00 | 84 | 1019.1 |
| 20260506072003 | 46 | 241 | 3.5 | 3.5 | 0.00 | 0.02 | 0.00 | 84 | 1019.0 |
| 20260506071504 | 46 | 247 | 3.5 | 5.2 | 0.00 | 0.02 | 0.00 | 84 | 1019.0 |
| 20260506071003 | 46 | 226 | 3.5 | 5.2 | 0.00 | 0.02 | 0.00 | 84 | 1018.9 |
| 20260506070503 | 46 | 234 | 2.6 | 4.3 | 0.00 | 0.02 | 0.00 | 84 | 1018.9 |
| 20260506062503 | 46 | 246 | 3.5 | 3.5 | 0.00 | 0.02 | 0.02 | 84 | 1018.6 |
| 20260506062003 | 46 | 243 | 3.5 | 7.0 | 0.00 | 0.02 | 0.02 | 84 | 1018.5 |
| 20260506061003 | 46 | 226 | 3.5 | 6.1 | 0.00 | 0.02 | 0.02 | 84 | 1018.4 |
| 20260506051003 | 46 | 217 | 4.3 | 7.8 | 0.00 | 0.02 | 0.02 | 82 | 1018.0 |
| 20260506050503 | 46 | 235 | 4.3 | 9.6 | 0.00 | 0.02 | 0.02 | 82 | 1018.0 |
| 20260506045003 | 46 | 226 | 4.3 | 9.6 | 0.00 | 0.02 | 0.02 | 82 | 1017.9 |
| 20260506044503 | 46 | 245 | 4.3 | 7.8 | 0.00 | 0.02 | 0.02 | 82 | 1017.9 |
| 20260506044003 | 46 | 227 | 4.3 | 8.7 | 0.00 | 0.02 | 0.02 | 83 | 1017.8 |
| 20260506043503 | 46 | 238 | 4.3 | 7.8 | 0.00 | 0.02 | 0.02 | 83 | 1017.8 |
| 20260506043003 | 46 | 232 | 4.3 | 7.0 | 0.00 | 0.02 | 0.02 | 83 | 1017.8 |
| 20260506042503 | 46 | 220 | 3.5 | 8.7 | 0.00 | 0.02 | 0.02 | 83 | 1017.7 |
| 20260506042003 | 46 | 222 | 2.6 | 6.1 | 0.00 | 0.02 | 0.02 | 83 | 1017.6 |
| 20260506041503 | 46 | 246 | 3.5 | 6.1 | 0.00 | 0.02 | 0.02 | 83 | 1017.5 |
| 20260506041003 | 46 | 242 | 3.5 | 7.8 | 0.00 | 0.02 | 0.02 | 83 | 1017.5 |
| 20260506040503 | 46 | 225 | 3.5 | 6.1 | 0.00 | 0.02 | 0.02 | 83 | 1017.4 |
| 20260506040003 | 46 | 236 | 3.5 | 7.0 | 0.00 | 0.02 | 0.02 | 82 | 1017.4 |
| 20260506035503 | 46 | 254 | 3.5 | 6.1 | 0.00 | 0.02 | 0.02 | 81 | 1017.4 |
| 20260506034503 | 47 | 221 | 4.3 | 7.8 | 0.00 | 0.02 | 0.02 | 82 | 1017.3 |
| 20260506034003 | 47 | 238 | 4.3 | 7.8 | 0.00 | 0.02 | 0.02 | 81 | 1017.2 |
| 20260506033503 | 47 | 223 | 4.3 | 6.1 | 0.00 | 0.02 | 0.02 | 81 | 1017.2 |
| 20260506033004 | 47 | 248 | 3.5 | 7.8 | 0.00 | 0.02 | 0.02 | 81 | 1017.1 |
| 20260506032503 | 47 | 227 | 2.6 | 7.0 | 0.00 | 0.02 | 0.02 | 80 | 1017.1 |
| 20260506032003 | 47 | 247 | 2.6 | 6.1 | 0.00 | 0.02 | 0.02 | 78 | 1017.1 |
| 20260506031503 | 47 | 236 | 3.5 | 4.3 | 0.00 | 0.02 | 0.02 | 76 | 1016.9 |
| 20260506031003 | 47 | 254 | 5.2 | 4.3 | 0.00 | 0.02 | 0.02 | 75 | 1016.8 |
| 20260506030503 | 48 | 263 | 5.2 | 7.8 | 0.00 | 0.02 | 0.02 | 75 | 1016.7 |
| 20260506025503 | 48 | 270 | 7.0 | 8.7 | 0.00 | 0.02 | 0.02 | 74 | 1016.6 |
| 20260506023504 | 48 | 256 | 6.1 | 9.6 | 0.00 | 0.02 | 0.02 | 76 | 1016.4 |
| 20260506023003 | 48 | 262 | 7.0 | 9.6 | 0.00 | 0.02 | 0.02 | 76 | 1016.3 |
| 20260506022503 | 48 | 273 | 7.0 | 11.3 | 0.00 | 0.02 | 0.02 | 76 | 1016.3 |
| 20260506022003 | 48 | 259 | 6.1 | 14.8 | 0.00 | 0.02 | 0.02 | 77 | 1016.2 |
| 20260506021503 | 48 | 259 | 5.2 | 9.6 | 0.00 | 0.02 | 0.02 | 77 | 1016.3 |
| 20260506020503 | 48 | 274 | 5.2 | 10.4 | 0.00 | 0.02 | 0.02 | 77 | 1016.1 |
| 20260506015503 | 48 | 276 | 6.1 | 7.8 | 0.00 | 0.02 | 0.02 | 78 | 1015.9 |
| 20260506015005 | 48 | 303 | 6.1 | 7.8 | 0.00 | 0.02 | 0.02 | 78 | 1016.0 |
| 20260506014503 | 49 | 310 | 4.3 | 14.8 | 0.00 | 0.02 | 0.02 | 78 | 1015.9 |
| 20260506014004 | 49 | 302 | 4.3 | 9.6 | 0.00 | 0.02 | 0.02 | 78 | 1015.9 |
| 20260506013503 | 49 | 312 | 5.2 | 7.0 | 0.00 | 0.02 | 0.02 | 78 | 1015.8 |
| 20260506013003 | 49 | 283 | 7.0 | 7.8 | 0.00 | 0.02 | 0.02 | 77 | 1015.8 |
| 20260506012503 | 49 | 273 | 9.6 | 7.0 | 0.00 | 0.02 | 0.02 | 77 | 1015.7 |
| 20260506012003 | 49 | 268 | 9.6 | 14.8 | 0.00 | 0.02 | 0.02 | 77 | 1015.6 |
| 20260506010504 | 49 | 272 | 7.8 | 13.0 | 0.00 | 0.02 | 0.02 | 77 | 1015.5 |
| 20260506010003 | 49 | 277 | 7.8 | 13.9 | 0.00 | 0.02 | 0.02 | 78 | 1015.6 |
| 20260506005503 | 49 | 259 | 7.0 | 10.4 | 0.00 | 0.02 | 0.02 | 78 | 1015.7 |
| 20260506005003 | 49 | 275 | 5.2 | 9.6 | 0.00 | 0.02 | 0.02 | 79 | 1015.7 |
| 20260506004504 | 49 | 268 | 4.3 | 9.6 | 0.00 | 0.02 | 0.02 | 81 | 1015.7 |
| 20260506004003 | 48 | 274 | 3.5 | 7.0 | 0.00 | 0.02 | 0.02 | 82 | 1015.7 |
| 20260506003003 | 48 | 292 | 5.2 | 7.8 | 0.00 | 0.02 | 0.02 | 82 | 1015.6 |
| 20260506002003 | 48 | 287 | 6.1 | 11.3 | 0.00 | 0.02 | 0.02 | 83 | 1015.5 |
| 20260506001503 | 47 | 288 | 5.2 | 7.8 | 0.00 | 0.02 | 0.02 | 84 | 1015.4 |
| 20260506001003 | 47 | 287 | 5.2 | 8.7 | 0.00 | 0.02 | 0.02 | 84 | 1015.3 |
| 20260506000504 | 47 | 294 | 5.2 | 6.1 | 0.00 | 0.02 | 0.02 | 84 | 1015.3 |
| 20260506000003 | 48 | 301 | 5.2 | 8.7 | 0.00 | 0.02 | 0.02 | 83 | 1015.4 |
| 20260505235004 | 48 | 293 | 4.3 | 7.0 | 0.00 | 0.02 | 0.02 | 82 | 1015.4 |
| 20260505234504 | 48 | 273 | 4.3 | 7.0 | 0.00 | 0.02 | 0.02 | 82 | 1015.4 |
| 20260505234003 | 48 | 307 | 3.5 | 8.7 | 0.00 | 0.02 | 0.02 | 82 | 1015.4 |
| 20260505233503 | 48 | 294 | 4.3 | 6.1 | 0.00 | 0.02 | 0.02 | 83 | 1015.5 |
| 20260505233004 | 48 | 276 | 7.0 | 6.1 | 0.00 | 0.02 | 0.02 | 83 | 1015.5 |
| 20260505232503 | 48 | 285 | 7.0 | 10.4 | 0.00 | 0.02 | 0.02 | 83 | 1015.5 |
| 20260505232003 | 48 | 296 | 7.0 | 11.3 | 0.00 | 0.02 | 0.02 | 83 | 1015.5 |
| 20260505231503 | 48 | 286 | 5.2 | 13.0 | 0.00 | 0.02 | 0.02 | 81 | 1015.6 |
| 20260505230503 | 49 | 289 | 3.5 | 7.8 | 0.00 | 0.02 | 0.02 | 80 | 1015.5 |
| 20260505230004 | 48 | 282 | 3.5 | 7.8 | 0.00 | 0.02 | 0.02 | 81 | 1015.5 |
| 20260505225503 | 48 | 304 | 4.3 | 7.0 | 0.00 | 0.02 | 0.02 | 81 | 1015.5 |
| 20260505225004 | 48 | 304 | 5.2 | 5.2 | 0.00 | 0.02 | 0.02 | 81 | 1015.6 |
| 20260505224503 | 47 | 284 | 4.3 | 7.8 | 0.00 | 0.02 | 0.02 | 87 | 1015.5 |
| 20260505223503 | 47 | 304 | 6.1 | 3.5 | 0.00 | 0.02 | 0.02 | 86 | 1015.8 |
| 20260505222504 | 47 | 307 | 2.6 | 11.3 | 0.00 | 0.02 | 0.02 | 87 | 1015.8 |
| 20260505222003 | 47 | 293 | 2.6 | 5.2 | 0.00 | 0.02 | 0.02 | 87 | 1015.7 |
| 20260505221504 | 47 | 310 | 3.5 | 3.5 | 0.00 | 0.02 | 0.02 | 87 | 1015.8 |
| 20260505221004 | 47 | 306 | 3.5 | 6.1 | 0.00 | 0.02 | 0.02 | 87 | 1015.8 |
| 20260505220503 | 47 | 307 | 4.3 | 9.6 | 0.00 | 0.02 | 0.02 | 86 | 1015.7 |
| 20260505220004 | 47 | 299 | 4.3 | 9.6 | 0.00 | 0.02 | 0.02 | 87 | 1015.8 |
| 20260505215503 | 47 | 297 | 2.6 | 8.7 | 0.00 | 0.02 | 0.02 | 87 | 1015.8 |
| 20260505215003 | 47 | 290 | 2.6 | 7.0 | 0.00 | 0.02 | 0.02 | 87 | 1015.8 |
| 20260505214503 | 47 | 293 | 2.6 | 3.5 | 0.00 | 0.02 | 0.02 | 88 | 1015.8 |
| 20260505214004 | 47 | 294 | 2.6 | 6.1 | 0.00 | 0.02 | 0.02 | 88 | 1015.9 |
| 20260505213503 | 47 | 315 | 2.6 | 4.3 | 0.00 | 0.02 | 0.02 | 88 | 1015.9 |
| 20260505213004 | 46 | 281 | 2.6 | 7.0 | 0.00 | 0.02 | 0.02 | 89 | 1016.0 |
| 20260505212502 | 46 | 302 | 3.5 | 2.6 | 0.00 | 0.02 | 0.02 | 89 | 1015.9 |
| 20260505212002 | 46 | 289 | 3.5 | 5.2 | 0.00 | 0.02 | 0.02 | 89 | 1016.0 |
| 20260505211502 | 46 | 321 | 4.3 | 7.0 | 0.00 | 0.02 | 0.02 | 89 | 1016.0 |
| 20260505210502 | 46 | 314 | 5.2 | 7.0 | 0.00 | 0.02 | 0.02 | 89 | 1016.0 |
| 20260505210003 | 46 | 288 | 4.3 | 8.7 | 0.00 | 0.02 | 0.02 | 88 | 1016.0 |
| 20260505205502 | 46 | 287 | 4.3 | 9.6 | 0.00 | 0.02 | 0.02 | 89 | 1015.9 |
| 20260505204502 | 46 | 295 | 5.2 | 7.8 | 0.00 | 0.02 | 0.02 | 89 | 1015.9 |
| 20260505204002 | 47 | 312 | 4.3 | 9.6 | 0.00 | 0.02 | 0.02 | 89 | 1015.9 |
| 20260505203503 | 47 | 312 | 4.3 | 8.7 | 0.00 | 0.02 | 0.02 | 88 | 1015.9 |